This demonstration page uses our WeatherBlox Daily Observations layout. Learn more.

Left ArrowRight Arrow

44.89941, -97.11507

Hourly Observations for July 25, 2016

Temp ( °F °C ) Dew Point ( °F °C ) Humidity (%) Winds ( mph kmh ) Pressure ( in mb ) Visibility ( mi km ) Precip ( " mm )
12:53 am 00:53 Clear 65 18.3 60 15.6 84 84 W 3 6 30.05 1018 10 16 0.00 0.00
1:53 am 01:53 Clear 66 18.9 60 15.6 81 81 Calm 30.05 1018 10 16 0.00 0.00
2:53 am 02:53 Clear 62 16.7 58 14.4 86 86 S 5 7 30.06 1018 10 16 0.00 0.00
3:53 am 03:53 Clear 63 17.2 60 15.6 90 90 Calm 30.04 1017 10 16 0.00 0.00
4:53 am 04:53 Clear 59 15 57 13.9 93 93 S 3 6 30.04 1017 10 16 0.00 0.00
5:53 am 05:53 Clear 61 16.1 57 13.9 87 87 Calm 30.05 1018 10 16 0.00 0.00
6:53 am 06:53 Sunny 61 16.1 58 14.4 90 90 Calm 30.07 1018 10 16 0.00 0.00
7:53 am 07:53 Sunny 67 19.4 60 15.6 79 79 SSE 3 6 30.07 1018 10 16 0.00 0.00
8:53 am 08:53 Sunny 73 22.8 62 16.7 69 69 SSW 5 7 30.09 1019 10 16 0.00 0.00
9:53 am 09:53 Sunny 78 25.6 63 17.2 60 60 SW 9 15 30.08 1019 10 16 0.00 0.00
10:53 am 10:53 Sunny 81 27.2 62 16.7 53 53 SW 12 19 30.07 1018 10 16 0.00 0.00
11:53 am 11:53 Sunny 84 28.9 61 16.1 46 46 SW 13 20 30.07 1018 10 16 0.00 0.00
12:53 pm 12:53 Sunny 85 29.4 59 15 42 42 SW 14 22 30.07 1018 10 16 0.00 0.00
1:53 pm 13:53 Sunny 87 30.6 58 14.4 37 37 SW 14 22 30.04 1017 10 16 0.00 0.00
2:53 pm 14:53 Sunny 88 31.1 62 16.7 42 42 S 13 20 30.04 1017 10 16 0.00 0.00
3:53 pm 15:53 Sunny 87 30.6 59 15 39 39 S 15 24 30.02 1017 10 16 0.00 0.00
4:53 pm 16:53 Sunny 87 30.6 60 15.6 40 40 SSW 18 30 30.01 1016 10 16 0.00 0.00
5:53 pm 17:53 Sunny 87 30.6 61 16.1 42 42 SSW 16 26 30.00 1016 10 16 0.00 0.00
6:53 pm 18:53 Sunny 85 29.4 63 17.2 48 48 S 12 19 29.99 1016 10 16 0.00 0.00
7:53 pm 19:53 Sunny 82 27.8 63 17.2 53 53 S 10 17 29.98 1015 10 16 0.00 0.00
8:53 pm 20:53 Sunny 77 25 66 18.9 69 69 S 9 15 29.98 1015 10 16 0.00 0.00
9:53 pm 21:53 Clear 75 23.9 67 19.4 76 76 S 10 17 29.99 1016 10 16 0.00 0.00
10:53 pm 22:53 Clear 74 23.3 64 17.8 71 71 S 10 17 30.00 1016 10 16 0.00 0.00
11:53 pm 23:53 Clear 74 23.3 63 17.2 69 69 S 12 19 30.00 1016 10 16 0.00 0.00

Powered by AerisWeather